This is the latest recevied weather packets stored in our database for station/object W3BRL. If no packets are shown the sender has not sent any weather packets the latest 10 day(s).
| Time | Temp. | Humidity | Pressure | Rain* | Wind** | Luminosity | Snow |
|---|---|---|---|---|---|---|---|
| 1778134482 | 7.78° C | 68% | 1011.1 hPa | 0 mm | - | 0 W/m² | - |
| 1778134180 | 7.78° C | 67% | 1011.1 hPa | 0 mm | - | 0 W/m² | - |
| 1778133876 | 7.78° C | 67% | 1011 hPa | 0 mm | - | 0 W/m² | - |
| 1778133573 | 7.78° C | 66% | 1011.2 hPa | 0 mm | - | 0 W/m² | - |
| 1778133268 | 7.78° C | 67% | 1011.3 hPa | 0 mm | - | 0 W/m² | - |
| 1778132966 | 7.78° C | 66% | 1011.2 hPa | 0 mm | - | 0 W/m² | - |
| 1778132661 | 7.78° C | 66% | 1011.5 hPa | 0 mm | - | 0 W/m² | - |
| 1778132359 | 7.78° C | 66% | 1011.5 hPa | 0 mm | - | 0 W/m² | - |
| 1778132056 | 8.33° C | 66% | 1011.7 hPa | 0 mm | - | 0 W/m² | - |
| 1778131755 | 8.33° C | 64% | 1011.7 hPa | 0 mm | - | 0 W/m² | - |
| 1778131452 | 8.33° C | 63% | 1011.9 hPa | 0 mm | - | 0 W/m² | - |
| 1778131149 | 8.33° C | 63% | 1011.7 hPa | 0 mm | - | 0 W/m² | - |
| 1778130847 | 8.33° C | 63% | 1011.7 hPa | 0 mm | - | 0 W/m² | - |
| 1778130543 | 8.33° C | 66% | 1011.6 hPa | 0 mm | - | 0 W/m² | - |
| 1778130240 | 8.33° C | 65% | 1011.6 hPa | 0 mm | - | 0 W/m² | - |
| 1778129937 | 8.33° C | 63% | 1011.6 hPa | 0 mm | - | 0 W/m² | - |
| 1778129633 | 8.33° C | 62% | 1011.5 hPa | 0 mm | - | 0 W/m² | - |
| 1778129331 | 8.33° C | 62% | 1011.7 hPa | 0 mm | - | 0 W/m² | - |
| 1778129027 | 8.33° C | 64% | 1011.5 hPa | 0 mm | - | 0 W/m² | - |
| 1778128723 | 8.33° C | 63% | 1011.5 hPa | 0 mm | - | 0 W/m² | - |
| 1778128420 | 8.33° C | 63% | 1011.5 hPa | 0 mm | - | 0 W/m² | - |
| 1778128116 | 8.89° C | 63% | 1011.6 hPa | 0 mm | - | 0 W/m² | - |
| 1778127812 | 8.89° C | 62% | 1011.5 hPa | 0 mm | - | 0 W/m² | - |
| 1778127509 | 8.89° C | 63% | 1011.5 hPa | 0 mm | - | 0 W/m² | - |
| 1778127205 | 8.89° C | 64% | 1011.7 hPa | 0 mm | - | 0 W/m² | - |
* Rain latest hour (hover to see other rain measurements)
** Current wind speed in m/s (hover to see current wind gust speed)